STARLINK-32414, 61667

Orbit data source: Space-Track

STARLINK-32414, 61667 is a payload satellite owned by SpaceX/Seattle (US) in LEO that was launched on Sat, 26 Oct 2024 UTC via an FALCON 9 launch vehicle from the Air Force Eastern Test Range (AFETR). Payloads include a variety of satellites, spacecraft, and rockets equipped with specific instruments for various scientific and technological missions. These include communications satellites like Starlink; space stations such as the ISS; scientific satellites like the Hubble; Earth observation satellites from companies like Planet Labs, Umbra, and HawkEye 360; GPS; miniature CubeSats for education and research; and military/defense satellites.

Loading next visibility...
STARLINK-32414 details
Identifier
61667, 2024-193G
Orbit
LEO
Last TLE update14 hours ago
Origin
Flag of USSpaceX/Seattle (US)
ManufacturerSpaceX/Seattle
MissionOperational spacecraft
Bus & MotorSTARLINK V2M, Unknown motor
Mass730 kg wet, ~700 kg dry
Launch date (UTC)
2024-10-26 (2 months ago)
Launch vehicle
FALCON 9
Launch site
Air Force Eastern Test Range (AFETR)
Object type
Payload
Rocket body
Debris
Shape & HBRUnknown
Radar Cross SectionLarge (>1 m²)

Expand to show TLE details & history

TLE from 14 hours ago
0 STARLINK-32414
1 61667U 24193G   24361.29998808  .00000012  00000-0  10290-4 0  9993
2 61667  53.1610 329.6726 0001300 112.4417 247.6726 15.39616105  9373
Epoch: 2024-12-26T07:11Z
Definitive object data (Epoch: 2024-12-26T07:11:58.97Z)
Latitude0.00003°
Longitude126.39555°
Altitude448.484 km
Speed7.644 km/s
True Right ascension21h 58m 41s
True Declination0° 00' 00"
Sunlit
Object was in daylight at TLE epoch
Visualization TLE readout
Latitude51.92644°
Longitude-164.4281°
Altitude452.774 km
Speed7.648 km/s
Apparent Right ascension06h 04m 45s
Apparent Declination11° 45' 59"
Sunlit
Object is in full shadow
Visualization observer readout
Local Sidereal Time20:56:46
Azimuth47.317° ENE
Elevation-24.725°
Doppler factor1
Orbital elements
Apogee altitude448.388 km
Perigee altitude446.614 km
Semi-major axis6,825.638 km
Eccentricity0.00013
Inclination53.161°
RAAN329.6726°
Arg. of periapsis112.4417°
True anomaly247.65882°
Mean anomaly247.6726°
Eccentric anomaly247.66571°
Mean motion3.84883 °/min
BSTAR0.00001029
Orbital period93.54 mins
Loading maneuver chart data...
Loading historical data...
Loading historical data...
Loading historical data...
Loading historical data...
Loading historical data...
Loading historical data...
Loading historical data...

STARLINK-32414 Visibility forecast

Observer location: undefined°, undefined

Span
Click to sort rows by Start time (UTC) header in descending order
Start Az.
Max El. time (UTC)
Max El. Az.
Max El.
End time (UTC)
End Az.
5 mins2024-12-27 00:30:45.521Z207.641° SW2024-12-27 00:32:45.521Z163.812° S36.67°2024-12-27 00:35:45.521Z62.726° ENE
5 mins2024-12-27 07:03:45.521Z333.384° NNW2024-12-27 07:05:45.521Z40.696° NE34.045°2024-12-27 07:08:45.521Z106.475° ESE
|